Location: Rodanthe
(35.5920°N, 75.4670°W)
Time: 06:42:02
(UTC-04:00)

ISS - All Passes

Search period start: 23 May 2017 00:00
Search period end: 02 June 2017 00:00
Orbit: 402 x 409 km, 51.6° (Epoch: 23 May)

Date Brightness Start Highest point End Pass type
(mag) Time Alt. Az. Time Alt. Az. Time Alt. Az.
23 May - 04:40:54 10° NNW 04:43:51 30° NE 04:46:48 10° E visible
23 May - 06:17:40 10° WNW 06:20:13 21° SW 06:22:45 10° S daylight
23 May - 21:18:32 10° SSW 21:21:42 45° SE 21:24:52 10° ENE visible
23 May - 22:55:57 10° WNW 22:58:21 18° NNW 23:00:45 10° NNE visible
24 May - 03:49:17 10° NNW 03:51:40 18° NNE 03:54:03 10° ENE visible
24 May - 05:25:10 10° WNW 05:28:19 45° SW 05:31:26 10° SSE daylight
24 May - 20:27:12 10° S 20:29:48 22° SE 20:32:23 10° ENE daylight
24 May - 22:03:11 10° W 22:06:09 30° NW 22:09:07 10° NNE visible
25 May - 02:57:59 10° N 02:59:23 12° NNE 03:00:46 10° NE visible
25 May - 04:33:03 10° NW 04:36:19 81° NE 04:39:35 10° SE visible
25 May - 19:37:15 10° SE 19:37:57 10° SE 19:38:38 10° ESE daylight
25 May - 21:10:47 10° WSW 21:14:02 60° NW 21:17:17 10° NE visible
25 May - 22:50:22 10° NW 22:51:06 11° NNW 22:51:49 10° N visible
26 May - 03:41:08 10° NW 03:44:14 38° NE 03:47:19 10° ESE visible
26 May - 05:18:21 10° W 05:20:29 16° SW 05:22:36 10° S visible
26 May - 20:18:44 10° SW 20:21:59 62° SE 20:25:15 10° NE daylight
26 May - 21:56:39 10° WNW 21:58:44 16° NNW 22:00:51 10° NNE visible
27 May - 02:49:24 10° NNW 02:52:02 22° NNE 02:54:40 10° E visible
27 May - 04:25:35 10° WNW 04:28:34 33° SW 04:31:33 10° SSE visible
27 May - 19:27:08 10° SSW 19:30:00 28° SE 19:32:53 10° ENE daylight
27 May - 21:03:41 10° W 21:06:28 25° NNW 21:09:16 10° NNE visible
28 May - 01:57:54 10° N 01:59:45 14° NNE 02:01:35 10° ENE visible
28 May - 03:33:18 10° NW 03:36:35 76° SW 03:39:50 10° SE night (unlit)
28 May - 18:36:18 10° SSE 18:38:05 14° SE 18:39:53 10° E daylight
28 May - 20:11:06 10° WSW 20:14:17 45° NW 20:17:28 10° NE daylight
29 May - 02:41:17 10° NW 02:44:29 50° NE 02:47:40 10° ESE night (unlit)
29 May - 04:19:11 10° W 04:20:37 12° SW 04:22:03 10° SSW night (unlit)
29 May - 19:18:53 10° SW 19:22:09 84° SE 19:25:28 10° NE daylight
29 May - 20:57:19 10° WNW 20:59:02 13° NNW 21:00:46 10° N visible
30 May - 01:49:27 10° NNW 01:52:17 27° NNE 01:55:07 10° E visible
30 May - 03:25:57 10° WNW 03:28:42 25° SW 03:31:27 10° S night (unlit)
30 May - 18:27:03 10° SSW 18:30:07 37° SE 18:33:12 10° ENE daylight
30 May - 20:04:07 10° W 20:06:42 21° NNW 20:09:16 10° NNE daylight
31 May - 00:57:47 10° NNW 01:00:00 16° NNE 01:02:11 10° ENE visible
31 May - 02:33:29 10° WNW 02:36:42 55° SW 02:39:54 10° SSE night (unlit)
31 May - 17:35:49 10° S 17:38:09 18° SE 17:40:29 10° E daylight
31 May - 19:11:22 10° WSW 19:14:26 35° NW 19:17:30 10° NNE daylight
01 Jun - 00:06:35 10° N 00:07:35 11° NNE 00:08:35 10° NE visible
01 Jun - 01:41:20 10° NW 01:44:36 66° NE 01:47:51 10° SE visible
01 Jun - 18:18:58 10° SW 18:22:14 73° NW 18:25:32 10° NE daylight
01 Jun - 19:57:59 10° NW 19:59:13 12° NNW 20:00:28 10° N daylight
